Starlink 11678

operational
NORAD ID: 64326 Int'l Des: 2025-124 Owner: SPXS Country: US Constellation: starlink
LEOCIRCULAR

Über Starlink 11678

Beschreibung wird geladen...

Live-Position

3D-Globus wird geladen...

Nächste Überflüge

Höhenverlauf

Altitude vs Time

uPlot chart will show altitude changes over time

Zweizeiliger Elementsatz

1 64326U 25124K 25261.13054995 .00202380 00000-0 15325-2 0 9990
2 64326 42.9995 349.4958 0003548 312.8026 47.2543 15.70992958 15696
Epoch: 18. Sept. 2025 • Age: 23 hours

Aktueller Status

Höhe 352.7 km
Geschwindigkeit 7.70 km/s
Subsatellitenpunkt 6.19°N, 38.71°W
Startdatum 10. Juni 2025
Alter 0.2 years
Typ internet

Technische Details

Klassifizierung Payload
Masse 960.00 kg
Trockenmasse 910.00 kg
Gesamtmasse 960.00 kg
Länge 0.30 m
Durchmesser 4.10 m
Spannweite 29.00 m
Form Box + pan
Hersteller SPXS
Bus-Typ Starlink V2MD
Phasenstatus In Orbit
Besitzer/Staat SPXS/US

Große Konstellationen

Loading constellations...